This is the latest recevied weather packets stored in our database for station/object LA9TLA-1. If no packets are shown the sender has not sent any weather packets the latest 10 day(s).
| Time | Temp. | Humidity | Pressure | Rain* | Wind** | Luminosity | Snow |
|---|---|---|---|---|---|---|---|
| 1778048866 | 10° C | 13% | 1024.6 hPa | 0 mm | - | - | - |
| 1778047064 | 7.78° C | 16% | 1024.5 hPa | 0 mm | - | - | - |
| 1778045263 | 5° C | 45% | 1024.4 hPa | 0 mm | - | - | - |
| 1778043466 | 6.67° C | 53% | 1024.5 hPa | 0 mm | - | - | - |
| 1778041664 | 5° C | 81% | 1024.5 hPa | 0 mm | - | - | - |
| 1778039865 | 3.89° C | 69% | 1024 hPa | 0 mm | - | - | - |
| 1778038066 | 3.89° C | 53% | 1024.4 hPa | 0 mm | - | - | - |
| 1778036266 | 3.89° C | 45% | 1024.3 hPa | 0 mm | - | - | - |
| 1778034465 | 3.89° C | 49% | 1024.3 hPa | 0 mm | - | - | - |
| 1778030870 | 4.44° C | 51% | 1024.5 hPa | 0 mm | - | - | - |
| 1778029068 | 4.44° C | 52% | 1024.5 hPa | 0 mm | - | - | - |
| 1778027264 | 4.44° C | 53% | 1024.5 hPa | 0 mm | - | - | - |
| 1778025463 | 5° C | 51% | 1024.6 hPa | 0 mm | - | - | - |
| 1778023663 | 5° C | 42% | 1024.4 hPa | 0 mm | - | - | - |
| 1778020063 | 5° C | 35% | 1024.4 hPa | 0 mm | - | - | - |
| 1778018264 | 5° C | 31% | 1024.5 hPa | 0 mm | - | - | - |
| 1778016462 | 5.56° C | 26% | 1024.4 hPa | 0 mm | - | - | - |
| 1778014666 | 5.56° C | 18% | 1024.4 hPa | 0 mm | - | - | - |
| 1778012870 | 5.56° C | 21% | 1024.5 hPa | 0 mm | - | - | - |
| 1778011064 | 5.56° C | 10% | 1024.5 hPa | 0 mm | - | - | - |
| 1778009267 | 6.11° C | 10% | 1024.4 hPa | 0 mm | - | - | - |
| 1778007466 | 6.67° C | 10% | 1023.9 hPa | 0 mm | - | - | - |
| 1778005666 | 7.22° C | 10% | 1023.7 hPa | 0 mm | - | - | - |
| 1778003865 | 7.78° C | 10% | 1024 hPa | 0 mm | - | - | - |
| 1778002067 | 8.33° C | 10% | 1023.7 hPa | 0 mm | - | - | - |
* Rain latest hour (hover to see other rain measurements)
** Current wind speed in m/s (hover to see current wind gust speed)